Location: Antioch Baptist Church
(32.6696°N, 85.7327°W)
Time: 20:03:00
(UTC+00:00)

Cosmos 1975 Rocket - Pass Details

Date: 14 July 2020
Orbit: 605 x 633 km, 82.5° (Epoch: 13 August)

Event Time Altitude Azimuth Distance (km) Brightness Sun altitude
Rises 10:05:22 0° 340° (NNW) 2,908 6.7 -8.2°
Reaches altitude 10° 10:07:48 10° 329° (NNW) 2,002 5.7 -7.8°
Maximum altitude 10:11:38 29° 270° (W) 1,156 4.0 -7.1°
Drops below altitude 10° 10:15:28 10° 210° (SSW) 2,002 5.1 -6.4°
Sets 10:17:55 0° 199° (SSW) 2,908 6.0 -6.0°
